Location: Canyon Creek Trailhead Parking
(40.8865°N, 123.0231°W)
Time: 09:06:04
(UTC+00:00)

Daily predictions for brighter satellites

Satellite Brightness Start Highest point End
(mag) Time Altitude Azimuth Time Altitude Azimuth Time Altitude Azimuth
Lacrosse 5 rocket 1.1 12:05:12 10° NW 12:09:10 67° SW 12:12:55 10° SE
DMSP B5D2-2 4.1 12:04:01 10° SSE 12:09:14 90° NE 12:14:31 10° NNW
Nadezhda 3 Rocket 4.1 12:04:14 10° N 12:10:37 80° W 12:16:56 10° S
RESURS DK-1 2.3 12:06:57 10° NNW 12:11:02 86° WSW 12:15:05 10° SSE
Cosmos 2322 Rocket 2.7 12:09:18 10° NW 12:14:28 37° WSW 12:19:38 10° S
ATLAS CENTAUR R/B 3.3 12:11:59 10° SSE 12:14:34 20° ESE 12:17:10 10° ENE
SJ 16-02 2.7 12:11:20 10° WSW 12:14:48 23° WNW 12:18:17 10° N
IRS-1D 3.7 12:10:37 10° N 12:15:57 74° WNW 12:21:14 10° SSW
ALOS 3.9 12:13:02 10° NNW 12:16:09 18° WNW 12:19:15 10° WSW
Genesis I 4.3 12:13:11 10° WSW 12:16:12 26° NW 12:19:17 10° N
OAO 3 Rocket 3.8 12:11:39 10° WSW 12:16:13 40° S 12:20:45 10° ESE
CZ-4 R/B 4.5 12:12:09 10° N 12:16:28 38° WNW 12:20:49 10° SW
Cosmos 2297 Rocket 4.3 12:16:10 10° SSE 12:20:41 25° ESE 12:25:13 10° NE
